Content
SEND FEEDBACK

Daily
Averages
Monthly
Summary
United States of America

WASECA, MINNESOTA


Home > North America > United States > Minnesota
Elevation: 1146 feet     Latitude: 44 04N     Longitude: 093 31W

WEATHER
 
SELECT A DAY
Number of Records: 313,806;   Date Range: 4/8/02 - 11/24/14
 
SHARE

PRINT THIS DATA

[ ← Previous Day ]
WEATHER ALMANAC - FEBRUARY 13, 2013
[ Next Day → ]
[ °C ]   °F
Weather ElementAverageHighLow
Temperature28.6 °F37.4 °F (2:16 pm)17.6 °F (1:15 am)
Dewpoint25.3 °F32 °F (1:55 pm)14 °F (1:15 am)
Humidity87.6 %93 % (12:34 am)75 % (11:55 am)
Barometer29.70 in29.83 in (12:34 am)29.58 in (8:56 pm)
Wind Speed7.3 mph15 mph (7:15 pm)
Wind Gust19.6 mph (7:15 pm)
Weather ElementAverage
Visibility9.8 mi
Wind DirectionSSW (217 °)

Weather ElementTotal
Precipitation0.01 in
Heating Degree Days37.5 (Base 65)
Averaged from 71 records on February 13, 2013
WEATHER CONDITIONS BREAKOUT
WIND DIRECTION BREAKOUT
WEATHER BY HOUR - FEBRUARY 13, 2013
[ °C ]   °F
Local TimeTemperatureDewpointHumidityBarometerVisibilityWind DirectionWind SpeedGust SpeedPrecipitationEventsConditions
12:34 AM19.4 °F17.6 °F93 %29.83 in10.0 miWSW (240°)5.8 mphClear
12:55 AM19.4 °F17.6 °F93 %29.82 in10.0 miSW (230°)4.6 mphClear
1:15 AM17.6 °F14.0 °F86 %29.82 in10.0 miSW (220°)4.6 mphClear
1:34 AM17.6 °F14.0 °F86 %29.81 in10.0 miWSW (240°)3.5 mphScattered Clouds
1:55 AM19.4 °F17.6 °F93 %29.81 in10.0 miSW (230°)4.6 mphMostly Cloudy
2:15 AM17.6 °F15.8 °F93 %29.81 in10.0 miWSW (240°)5.8 mphScattered Clouds
2:35 AM17.6 °F15.8 °F93 %29.81 in10.0 miSW (230°)4.6 mphClear
2:55 AM17.6 °F14.0 °F86 %29.81 in10.0 miWSW (250°)6.9 mphClear
3:15 AM17.6 °F14.0 °F86 %29.80 in10.0 miWSW (240°)5.8 mphClear
3:35 AM17.6 °F15.8 °F93 %29.80 in10.0 miWSW (240°)5.8 mphClear
3:55 AM17.6 °F14.0 °F86 %29.79 in10.0 miSW (230°)5.8 mphClear
4:15 AM17.6 °F15.8 °F93 %29.79 in10.0 miSW (230°)5.8 mphClear
4:35 AM17.6 °F14.0 °F86 %29.79 in10.0 miSW (230°)4.6 mphClear
4:55 AM17.6 °F14.0 °F86 %29.79 in10.0 miSW (230°)5.8 mphClear
5:15 AM19.4 °F15.8 °F86 %29.78 in10.0 miSW (230°)4.6 mphClear
5:35 AM17.6 °F14.0 °F86 %29.78 in10.0 miSW (230°)4.6 mphClear
5:55 AM17.6 °F14.0 °F86 %29.78 in10.0 miSW (230°)3.5 mphMostly Cloudy
6:15 AM19.4 °F17.6 °F93 %29.78 in10.0 miSW (220°)3.5 mphOvercast
6:35 AM19.4 °F17.6 °F93 %29.76 in10.0 miSouth (170°)3.5 mphOvercast
6:55 AM19.4 °F17.6 °F93 %29.76 in10.0 miSW (220°)4.6 mphOvercast
7:15 AM19.4 °F17.6 °F93 %29.77 in10.0 miSSW (210°)4.6 mphOvercast
7:35 AM21.2 °F19.4 °F93 %29.76 in10.0 miSSW (200°)4.6 mphOvercast
7:55 AM21.2 °F19.4 °F93 %29.76 in10.0 miSSW (200°)6.9 mphOvercast
8:15 AM21.2 °F19.4 °F93 %29.76 in10.0 miSW (220°)8.1 mphScattered Clouds
8:35 AM23.0 °F21.2 °F93 %29.76 in10.0 miSW (220°)5.8 mphClear
8:55 AM23.0 °F21.2 °F93 %29.76 in10.0 miSW (220°)4.6 mphClear
9:15 AM24.8 °F21.2 °F86 %29.76 in10.0 miSSW (210°)4.6 mphScattered Clouds
9:35 AM26.6 °F23.0 °F86 %29.75 in10.0 miSW (220°)4.6 mphMostly Cloudy
9:55 AM26.6 °F23.0 °F86 %29.75 in10.0 miSSW (210°)6.9 mphOvercast
10:15 AM30.2 °F24.8 °F80 %29.75 in10.0 miSSW (210°)5.8 mphOvercast
10:36 AM32.0 °F26.6 °F80 %29.74 in10.0 miSSW (200°)8.1 mphMostly Cloudy
10:55 AM32.0 °F26.6 °F80 %29.74 in10.0 miSSW (210°)9.2 mphMostly Cloudy
11:16 AM32.0 °F26.6 °F80 %29.73 in10.0 miSSW (200°)8.1 mphMostly Cloudy
11:35 AM33.8 °F28.4 °F81 %29.73 in10.0 miSSW (210°)9.2 mphScattered Clouds
11:55 AM33.8 °F26.6 °F75 %29.73 in10.0 miSSW (210°)8.1 mphScattered Clouds
12:15 PM35.6 °F30.2 °F81 %29.72 in10.0 miSSW (210°)9.2 mphClear
12:35 PM35.6 °F30.2 °F81 %29.71 in10.0 miSSW (210°)9.2 mphScattered Clouds
12:55 PM35.6 °F30.2 °F81 %29.70 in10.0 miSSW (210°)10.4 mphMostly Cloudy
1:15 PM35.6 °F30.2 °F81 %29.70 in10.0 miSSW (210°)10.4 mphScattered Clouds
1:35 PM35.6 °F30.2 °F81 %29.69 in10.0 miSSW (200°)9.2 mphClear
1:55 PM35.6 °F32.0 °F87 %29.68 in10.0 miSouth (180°)10.4 mphClear
2:16 PM37.4 °F32.0 °F81 %29.67 in10.0 miSouth (190°)9.2 mphScattered Clouds
2:35 PM35.6 °F30.2 °F81 %29.66 in10.0 miSouth (190°)10.4 mphMostly Cloudy
2:55 PM37.4 °F32.0 °F81 %29.66 in10.0 miSouth (190°)6.9 mphMostly Cloudy
3:16 PM35.6 °F32.0 °F87 %29.66 in10.0 miSouth (180°)6.9 mphOvercast
3:35 PM35.6 °F32.0 °F87 %29.65 in10.0 miSouth (180°)5.8 mphOvercast
3:55 PM35.6 °F32.0 °F87 %29.65 in10.0 miSouth (190°)5.8 mphMostly Cloudy
4:15 PM35.6 °F32.0 °F87 %29.65 in10.0 miSSW (210°)6.9 mphOvercast
4:36 PM35.6 °F32.0 °F87 %29.65 in10.0 miSW (220°)5.8 mphOvercast
4:55 PM35.6 °F32.0 °F87 %29.64 in10.0 miSouth (180°)4.6 mphOvercast
5:15 PM35.6 °F32.0 °F87 %29.63 in10.0 miSSE (150°)5.8 mphOvercast
5:35 PM35.6 °F32.0 °F87 %29.63 in10.0 miSSE (160°)6.9 mphOvercast
5:55 PM35.6 °F32.0 °F87 %29.63 in10.0 miSouth (190°)6.9 mphOvercast
6:15 PM35.6 °F32.0 °F87 %29.63 in10.0 miSSW (210°)5.8 mphRainLight Rain
6:36 PM35.6 °F32.0 °F87 %29.62 in10.0 miSouth (190°)6.9 mphRainRain
6:56 PM35.6 °F32.0 °F87 %29.61 in10.0 miSW (220°)10.4 mph0.01 inLight Drizzle
7:15 PM35.6 °F32.0 °F87 %29.61 in10.0 miSW (230°)15.0 mph19.6 mphLight Drizzle
7:35 PM35.6 °F32.0 °F87 %29.61 in10.0 miSW (230°)13.8 mphOvercast
7:55 PM35.6 °F32.0 °F87 %29.60 in10.0 miSW (230°)11.5 mphOvercast
8:15 PM35.6 °F32.0 °F87 %29.60 in7.0 miSW (220°)8.1 mphRainLight Rain
8:35 PM33.8 °F32.0 °F93 %29.59 in10.0 miSW (220°)8.1 mphLight Drizzle
8:56 PM33.8 °F32.0 °F93 %29.58 in10.0 miSW (220°)6.9 mphOvercast
9:15 PM33.8 °F32.0 °F93 %29.58 in10.0 miSW (230°)9.2 mphOvercast
9:36 PM33.8 °F32.0 °F93 %29.58 in10.0 miSW (230°)8.1 mphOvercast
9:55 PM33.8 °F32.0 °F93 %29.58 in10.0 miWSW (240°)8.1 mphOvercast
10:15 PM33.8 °F32.0 °F93 %29.58 in10.0 miWSW (250°)12.7 mphOvercast
10:35 PM33.8 °F32.0 °F93 %29.58 in10.0 miWest (260°)11.5 mphOvercast
10:55 PM33.8 °F30.2 °F87 %29.58 in10.0 miWest (260°)11.5 mphOvercast
11:14 PM33.8 °F30.2 °F87 %29.58 in10.0 miWest (260°)11.5 mphOvercast
11:35 PM33.8 °F32.0 °F93 %29.58 in7.0 miWest (270°)10.4 mph16.1 mphRainLight Rain
11:55 PM33.8 °F32.0 °F93 %29.59 in5.0 miWest (260°)8.1 mphOvercast
Hourly data recorded from KACQ, located miles away from Waseca, Minnesota







STORIES FROM OUR PARTNERS